Location: Harbor Island
(32.3990°N, 80.4435°W)
Time: 09:43:39
(UTC-04:00)

Daily predictions for brighter satellites

Satellite Brightness Start Highest point End
(mag) Time Altitude Azimuth Time Altitude Azimuth Time Altitude Azimuth
GPS 2-05 Rocket1 3.5 19:59:13 10° SW 20:02:35 42° SSE 20:06:00 10° E
Meteor 1-24 Rocket 4.1 20:00:31 10° N 20:05:48 44° E 20:11:13 10° SSE
Cosmos 405 4.2 20:02:28 10° SSW 20:05:52 48° W 20:09:18 10° N
Cosmos 1953 3.9 20:03:44 10° SE 20:06:17 16° E 20:08:51 10° NE
Cosmos 1707 2.7 20:02:45 10° N 20:06:41 85° E 20:10:32 10° S
Cosmos 2082 Rocket 4.1 20:08:06 10° NE 20:10:02 12° NE 20:11:58 10° ENE
NOAA 12 4.2 20:05:21 10° SSE 20:10:40 87° WSW 20:16:00 10° NNW
Cosmos 2123 Rocket 4.4 20:05:08 10° N 20:11:02 40° E 20:16:51 10° SSE
Cosmos 1867 4.3 20:07:16 10° S 20:11:58 31° ESE 20:16:43 10° NE
ALOS 2.4 20:08:20 10° SSE 20:12:51 52° ENE 20:17:23 10° N
USA 215 3.7 20:13:22 10° ENE 20:19:26 40° SE 20:25:28 10° SSW
Meteor 2-5 Rocket 4.1 20:14:30 10° NNW 20:20:16 76° W 20:26:06 10° S
Cosmos 1766 3.1 20:18:27 10° S 20:22:19 79° E 20:26:12 10° N
Spot 2 Rocket 3.9 20:18:21 10° SE 20:23:06 41° ENE 20:27:52 10° N
COSMOS 2406 3.6 20:18:06 10° NNW 20:23:48 69° WSW 20:29:26 10° S
Delta 168 4.1 20:22:14 10° SW 20:25:17 21° S 20:27:11 14° SE
Aurora 2 Rocket 4.4 20:24:27 10° SW 20:30:44 31° S 20:34:13 16° ESE
H-II Stage 2 1.6 20:29:38 10° WSW 20:31:36 33° S 20:32:29 23° SE
Resurs 1-3 4.0 20:27:51 10° SE 20:31:59 43° ENE 20:36:08 10° N
ISS -2.7 20:31:15 10° S 20:33:56 24° SE 20:34:28 23° ESE
BREEZE-M DEB (TANK) 4.2 20:36:57 10° W 20:39:24 34° NNW 20:44:21 10° NE
Envisat 4.2 20:40:01 20° E 20:41:15 22° ENE 20:45:03 10° NNE
RESURS DK-1 2.3 20:38:23 10° NNW 20:42:30 68° ENE 20:45:41 16° SSE
Lacrosse 5 3.7 20:42:51 10° WSW 20:47:20 31° NW 20:51:49 10° NNE
Cosmos 1125 Rocket 3.4 20:43:16 10° S 20:48:24 67° ESE 20:53:34 10° NNE
Cosmos 1674 4.4 20:45:40 10° NNE 20:47:22 18° NE 20:47:22 18° NE
CZ-2D R/B 3.2 20:47:35 15° SSE 20:50:36 62° ENE 20:54:26 10° N
BREEZE-M DEB (TANK) 2.4 20:48:55 10° SW 20:51:36 87° SE 20:59:02 10° NE
Timation 1 Rocket 4.3 20:48:25 10° SSW 20:54:24 89° W 21:00:28 10° NNE
Cosmos 1805 3.3 20:52:01 10° S 20:55:54 79° W 20:59:48 10° N
SAR-Lupe-4 3.9 20:55:34 41° E 20:55:59 44° ENE 20:59:24 10° N
Geosat 4.3 20:54:34 10° NNE 20:59:34 70° WNW 21:04:33 10° SSW
Okean 3 Rocket 3.5 20:57:35 10° N 21:02:00 89° E 21:06:19 11° S
Tiangong 1 1.3 21:00:25 10° NW 21:03:03 50° N 21:03:03 50° N
Yuri Rocket 3.6 21:01:21 10° W 21:05:21 41° S 21:06:15 36° SSE
In-Cosmos 22 4.2 21:01:23 10° N 21:06:41 77° W 21:11:56 10° S
SeaSat 1 3.3 21:04:19 10° S 21:09:03 48° WSW 21:13:48 10° NW
Delta 128 3.9 21:05:16 10° WSW 21:09:34 47° S 21:10:15 43° SSE
Cosmos 1470 3.9 21:12:27 31° NE 21:12:27 31° NE 21:14:44 10° NNE
SL-27 R/B 4.3 21:11:04 10° NW 21:14:17 32° W 21:17:26 11° SSW
SAR-Lupe-1 4.2 21:16:04 62° NNE 21:16:04 62° NNE 21:19:11 10° N
H-2A R/B (2) 2.5 21:16:25 10° W 21:19:32 47° S 21:20:59 38° SE
Cosmos 2278 Rocket 4.2 21:15:07 10° WSW 21:19:57 28° WNW 21:24:49 10° N
Meteor 1-29 3.1 21:17:35 10° N 21:21:00 73° WNW 21:21:00 73° WNW
Cosmos 1833 Rocket 3.0 21:15:45 10° N 21:21:04 42° ENE 21:21:14 42° ENE
GP-B 3.0 21:19:19 35° S 21:21:10 88° E 21:25:37 10° N
Meteor 1-4 Rocket 3.9 21:19:25 10° SSW 21:22:39 37° W 21:25:54 10° N
Cosmos 2016 Rocket 4.2 21:24:18 44° E 21:24:18 44° E 21:29:58 10° NNE
Cosmos 1076 Rocket 3.5 21:20:03 10° N 21:24:18 79° W 21:25:13 53° S
Cosmos 1818 3.5 21:18:57 10° NNW 21:24:21 62° ENE 21:25:02 57° E
Resurs 01 Rocket 3.2 21:21:28 10° SSW 21:25:28 34° W 21:29:29 10° NNW
SJ-11-01 4.4 21:26:00 54° NE 21:26:00 54° NE 21:30:15 10° N
COSMOS 2487 4.3 21:22:12 10° N 21:23:40 22° N 21:23:40 22° N
Helios 1B rocket 3.4 21:25:10 10° N 21:29:09 48° WNW 21:33:05 10° SSW
Delta 2 Rocket 3.7 21:27:48 10° WNW 21:32:00 59° SW 21:32:00 59° SW
Cosmos 1269 Rocket 3.8 21:28:24 10° NNW 21:33:41 75° ENE 21:33:59 73° ESE
Helios 1A 3.4 21:33:38 51° SW 21:34:18 59° W 21:38:26 10° NNW
Cosmos 1766 Rocket 3.5 21:30:00 10° N 21:34:17 81° NNW 21:34:17 81° NNW
ATLAS 5 CENTAUR R/B 2.0 21:31:06 10° SW 21:35:40 64° WNW 21:40:35 10° NNE
Cosmos 2100 Rocket 4.0 21:32:20 10° S 21:38:38 85° W 21:45:02 10° N
Cosmos-2242 3.7 21:44:00 49° WSW 21:44:27 52° W 21:48:37 10° N
Cosmos 1939 Rocket 4.3 21:46:50 33° NNW 21:46:50 33° NNW 21:49:11 10° NNW
Cosmos 2082 Rocket 2.1 21:49:06 10° NNW 21:54:34 81° WNW 21:54:34 81° WNW
Cosmos 1802 Rocket 4.0 21:56:20 40° SSW 21:58:39 75° W 22:04:48 10° N
USA 215 4.1 21:56:12 10° NNE 22:02:23 47° NW 22:08:33 10° WSW
Envisat 4.4 22:20:13 34° W 22:20:13 34° W 22:24:37 10° NNW
Timation 2 Rocket 4.4 22:14:53 10° NNW 22:20:08 57° WNW 22:20:08 57° WNW
